[[{"header":{"parameterUnit":"m.s-1","parameterCategory":1,"la1":30.2991,"la2":30.254,"lo1":-89.0895,"lo2":-89.0444,"dy":0.0017,"dx":0.0017,"nx":28,"ny":28,"refTime":"2025-04-22T09:00:00:Z","depth":0,"parameterNumber":2,"parameterNumberName":"U-component_of_WINDS"},"data":[0,0,0,0,0,0,0,0,0,0,0,0,0,0,0,0,0,0,0,0,0,0,0,0,0,0,0,0,0,0,0,0,0,0,0,0,0,0,0,0,0,0,0,0,0,0,0,0,0,0,0,0,0,0,0,0,0,0,-1.6232,-1.6233,0,-1.6346,-1.6347,-1.6348,-1.6374,-1.6374,-1.6373,-1.6372,-1.6496,-1.65,-1.6504,0,0,0,0,0,0,0,0,0,0,0,0,0,-1.6045,-1.6048,-1.6232,-1.6233,-1.6235,-1.6345,-1.6347,-1.6349,-1.6375,-1.6374,-1.6373,-1.6372,-1.6494,-1.6499,-1.6504,0,0,0,0,0,0,0,0,0,0,0,0,0,-1.6139,-1.6049,-1.6231,-1.6261,-1.6264,-1.6345,-1.6347,-1.6349,-1.6375,-1.6374,-1.6372,-1.6371,-1.6493,-1.6499,-1.6505,-1.6566,0,0,-1.6523,-1.6526,0,0,0,0,0,0,0,0,-1.6134,-1.6146,-1.6255,-1.6259,-1.6263,-1.6344,-1.6326,-1.6422,-1.6375,-1.6333,-1.6372,-1.6371,-1.6447,-1.6457,-1.6481,-1.6572,-1.6577,-1.6524,-1.6527,-1.653,-1.6532,0,0,0,0,0,0,0,-1.6127,-1.6141,-1.6277,-1.6257,-1.6262,-1.6271,-1.6283,-1.6345,-1.6396,-1.6337,-1.6339,-1.6352,-1.6449,-1.6475,-1.6484,-1.6579,-1.6523,-1.6529,-1.6533,-1.6535,-1.6729,-1.673,0,0,0,0,0,0,-1.6114,-1.6136,-1.6273,-1.628,-1.6194,-1.6275,-1.6289,-1.632,-1.6395,-1.6405,-1.6352,-1.6352,-1.6465,-1.6477,-1.6488,-1.6566,-1.653,-1.6536,-1.6539,-1.6727,-1.6729,-1.6731,0,0,0,0,0,0,-1.611,-1.6126,-1.6269,-1.6209,-1.6227,-1.6279,-1.6314,-1.6323,-1.6348,-1.6407,-1.6417,-1.6369,-1.6465,-1.648,-1.6547,-1.6571,-1.6538,-1.6544,-1.6726,-1.6728,-1.673,-1.6722,0,0,0,0,0,0,-1.6105,-1.6125,-1.6147,-1.6209,-1.623,-1.6323,-1.6316,-1.6326,-1.6358,-1.6359,-1.6425,-1.6435,-1.6465,-1.6537,-1.6553,-1.6579,-1.6549,-1.6724,-1.6727,-1.6729,-1.672,-1.6723,-1.6726,0,0,0,0,0,-1.6098,-1.6141,-1.6148,-1.6164,-1.6259,-1.6324,-1.6337,-1.6368,-1.636,-1.6384,-1.6422,-1.6433,-1.6566,-1.6544,-1.6561,-1.6589,-1.6722,-1.6726,-1.6729,-1.6719,-1.6723,-1.6726,0,0,0,0,0,0,-1.6083,-1.615,-1.6158,-1.6222,-1.6267,-1.6328,-1.6359,-1.6371,-1.6421,-1.642,-1.646,-1.6474,-1.6539,-1.6571,-1.6546,-1.6654,-1.6644,-1.6651,-1.663,-1.6635,-1.6638,-1.6629,-1.6554,0,0,0,0,0,-1.6086,-1.6131,-1.6189,-1.624,-1.6262,-1.6306,-1.6336,-1.6356,-1.6405,-1.6425,-1.6468,-1.6517,-1.657,-1.6604,-1.6656,-1.6725,-1.6741,-1.6754,-1.6757,-1.6759,-1.6764,-1.6805,-1.6811,-1.6742,-1.6742,-1.6742,0,0,-1.6095,-1.6137,-1.6164,-1.6238,-1.6275,-1.6323,-1.6322,-1.6373,-1.641,-1.6434,-1.6499,-1.6532,-1.659,-1.6658,-1.669,-1.6687,-1.6787,-1.6763,-1.6764,-1.6769,-1.6809,-1.6815,-1.6821,-1.6744,-1.6744,-1.6744,0,0,-1.6135,-1.6171,-1.6218,-1.6255,-1.6311,-1.634,-1.6352,-1.6412,-1.6434,-1.6499,-1.6519,-1.6565,-1.6655,-1.6696,-1.6728,-1.6785,-1.6798,-1.6802,-1.6818,-1.6857,-1.6862,-1.6867,-1.6888,-1.6895,-1.6807,-1.6807,-1.6807,0,-1.614,-1.621,-1.6241,-1.6291,-1.6324,-1.6346,-1.6395,-1.643,-1.6501,-1.6525,-1.6519,-1.6633,-1.6674,-1.6753,-1.6766,-1.6792,-1.6808,-1.6794,-1.6858,-1.6864,-1.6869,-1.689,-1.6897,-1.6807,-1.6807,-1.6807,-1.6807,0,-1.6214,-1.6263,-1.6294,-1.6359,-1.6396,-1.6445,-1.6486,-1.652,-1.6538,-1.6569,-1.6637,-1.6686,-1.6749,-1.6769,-1.6788,-1.6851,-1.6848,-1.685,-1.6841,-1.6875,-1.6895,-1.6903,-1.6807,-1.6807,-1.6807,-1.6807,0,0,-1.6246,-1.6328,-1.6339,-1.637,-1.6434,-1.6473,-1.6525,-1.6584,-1.6613,-1.6662,-1.6708,-1.6784,-1.6786,-1.6823,-1.6847,-1.6881,-1.6925,-1.688,-1.6882,-1.6887,-1.6999,-1.6997,-1.7005,-1.6934,-1.6935,-1.6937,-1.6994,0,-1.6295,-1.6384,-1.6414,-1.649,-1.6536,-1.6559,-1.6604,-1.665,-1.6681,-1.6727,-1.6763,-1.6816,-1.6815,-1.6838,-1.6872,-1.6912,-1.6948,-1.6908,-1.6978,-1.6981,-1.6963,-1.7016,-1.7013,-1.7065,-1.7002,-1.7004,-1.7005,0,-1.6363,-1.641,-1.6489,-1.6548,-1.6569,-1.6608,-1.6666,-1.6709,-1.6763,-1.6783,-1.6824,-1.6846,-1.6903,-1.6891,-1.6972,-1.6944,-1.6975,-1.6999,-1.7002,-1.701,-1.6994,-1.7025,-1.7082,-1.709,-1.7017,-1.7016,-1.7015,0,-1.6379,-1.6463,-1.6522,-1.6547,-1.6617,-1.6645,-1.6676,-1.6727,-1.6761,-1.6813,-1.6836,-1.6894,-1.6926,-1.6972,-1.701,-1.6997,-1.7088,-1.7078,-1.7108,-1.7107,-1.7126,-1.7124,-1.7189,-1.7146,-1.7146,-1.7145,-1.7145,0,-1.643,-1.6478,-1.653,-1.6566,-1.6621,-1.6657,-1.6711,-1.6744,-1.679,-1.6835,-1.6859,-1.6902,-1.6948,-1.6997,-1.7028,-1.7091,-1.7105,-1.7125,-1.7133,-1.7123,-1.712,-1.7144,-1.7141,-1.7148,-1.7147,-1.7147,-1.7146,0,-1.6457,-1.6494,-1.656,-1.662,-1.6636,-1.6675,-1.6728,-1.6765,-1.6797,-1.6854,-1.6869,-1.6921,-1.698,-1.7022,-1.7099,-1.7119,-1.7188,-1.7195,-1.7169,-1.7172,-1.72,-1.7197,-1.7282,-1.7296,-1.7243,-1.7243,-1.7243,0,-1.6487,-1.6524,-1.6588,-1.6619,-1.6649,-1.6698,-1.6733,-1.677,-1.6806,-1.687,-1.69,-1.696,-1.701,-1.7104,-1.715,-1.721,-1.7219,-1.7245,-1.7228,-1.7217,-1.722,-1.7217,-1.7222,-1.7247,-1.7247,-1.7248,-1.7248,0,-1.6537,-1.6553,-1.66,-1.6655,-1.6695,-1.674,-1.6786,-1.681,-1.6856,-1.6896,-1.6955,-1.6994,-1.7071,-1.7132,-1.7196,-1.7231,-1.7248,-1.7253,-1.7263,-1.7254,-1.7237,-1.7247,-1.7176,-1.7251,-1.725,-1.725,-1.725,-1.725,-1.6567,-1.6601,-1.6651,-1.6704,-1.6742,-1.6785,-1.6823,-1.6859,-1.6908,-1.6973,-1.6993,-1.7055,-1.711,-1.7197,-1.7233,-1.7284,-1.7283,-1.7297,-1.7301,-1.7304,-1.7304,-1.7228,-1.7296,-1.7296,-1.7296,-1.7296,-1.7296,0,-1.6618,-1.6651,-1.6699,-1.6762,-1.6804,-1.6814,-1.6866,-1.6901,-1.6954,-1.7002,-1.7051,-1.712,-1.7179,-1.723,-1.7292,-1.7323,-1.7332,-1.7338,-1.7336,-1.7344,-1.7301,-1.7286,-1.7329,-1.7329,-1.7329,-1.7329,-1.7329,-1.7329,-1.665,-1.6708,-1.6731,-1.681,-1.6844,-1.6903,-1.6932,-1.6972,-1.7011,-1.7086,-1.7134,-1.7166,-1.7216,-1.7282,-1.7337,-1.7351,-1.7373,-1.7377,-1.7392,-1.7351,-1.7347,-1.7344,-1.733,-1.7381,-1.7381,-1.7432,-1.7432,-1.7432]},{"header":{"parameterUnit":"m.s-1","parameterCategory":1,"la1":30.2991,"la2":30.254,"lo1":-89.0895,"lo2":-89.0444,"dy":0.0017,"dx":0.0017,"nx":28,"ny":28,"refTime":"2025-04-22T09:00:00:Z","depth":0,"parameterNumber":3,"parameterNumberName":"V-component_of_WINDS"},"data":[0,0,0,0,0,0,0,0,0,0,0,0,0,0,0,0,0,0,0,0,0,0,0,0,0,0,0,0,0,0,0,0,0,0,0,0,0,0,0,0,0,0,0,0,0,0,0,0,0,0,0,0,0,0,0,0,0,0,4.0688,4.0689,0,4.0801,4.0802,4.0804,4.0817,4.0816,4.0815,4.0814,4.0926,4.093,4.0934,0,0,0,0,0,0,0,0,0,0,0,0,0,4.0478,4.0482,4.0688,4.0689,4.069,4.0801,4.0803,4.0804,4.0817,4.0816,4.0815,4.0813,4.0924,4.0929,4.0934,0,0,0,0,0,0,0,0,0,0,0,0,0,4.0578,4.0483,4.0687,4.0711,4.0714,4.0801,4.0803,4.0805,4.0818,4.0816,4.0814,4.0813,4.0923,4.0929,4.0935,4.1005,0,0,4.0953,4.0955,0,0,0,0,0,0,0,0,4.0572,4.0586,4.0706,4.0709,4.0713,4.0794,4.077,4.0871,4.0818,4.0778,4.0814,4.0812,4.0883,4.0892,4.0917,4.101,4.1015,4.0953,4.0957,4.096,4.0961,0,0,0,0,0,0,0,4.0566,4.0581,4.0732,4.0707,4.0712,4.0714,4.0726,4.0789,4.0838,4.0781,4.0783,4.0796,4.0884,4.0911,4.0919,4.1016,4.0953,4.0959,4.0962,4.0965,4.1174,4.1175,0,0,0,0,0,0,4.0555,4.0575,4.0729,4.0736,4.0637,4.0719,4.0733,4.0769,4.0838,4.0846,4.0798,4.0796,4.0901,4.0912,4.0923,4.1011,4.096,4.0965,4.0969,4.1172,4.1174,4.1176,0,0,0,0,0,0,4.055,4.0569,4.0724,4.0656,4.0676,4.0725,4.0765,4.0772,4.0799,4.085,4.0858,4.0816,4.0901,4.0915,4.0985,4.1015,4.0968,4.0973,4.1169,4.1172,4.1175,4.1185,0,0,0,0,0,0,4.0544,4.0567,4.0595,4.0657,4.068,4.0785,4.0767,4.0776,4.081,4.0809,4.0869,4.0878,4.09,4.0976,4.0991,4.1022,4.0978,4.1167,4.1171,4.1174,4.1183,4.1188,4.1193,0,0,0,0,0,4.0537,4.0592,4.0596,4.0615,4.0716,4.0787,4.08,4.0826,4.0812,4.084,4.0873,4.0876,4.1009,4.0983,4.1,4.1033,4.1165,4.117,4.1174,4.118,4.1187,4.1193,0,0,0,0,0,0,4.0531,4.0601,4.0606,4.0683,4.0729,4.0789,4.0825,4.0833,4.0882,4.088,4.0909,4.0922,4.0991,4.1019,4.0989,4.1105,4.1086,4.1094,4.1084,4.1092,4.1097,4.1088,4.0983,0,0,0,0,0,4.0539,4.0592,4.0649,4.0712,4.0735,4.0776,4.0808,4.0825,4.0873,4.0892,4.0929,4.0975,4.1027,4.1061,4.1112,4.1187,4.12,4.1218,4.1223,4.1227,4.1234,4.1276,4.1285,4.119,4.119,4.119,0,0,4.0555,4.06,4.0631,4.0712,4.0749,4.0803,4.0792,4.0849,4.0888,4.09,4.0969,4.0998,4.1051,4.1124,4.1158,4.1149,4.1263,4.1233,4.1236,4.124,4.1281,4.129,4.1298,4.1193,4.1193,4.1192,0,0,4.0612,4.0652,4.0709,4.0747,4.0805,4.0832,4.0845,4.0905,4.0925,4.0995,4.1005,4.1052,4.1141,4.1179,4.1209,4.1282,4.1286,4.1297,4.1325,4.1365,4.1373,4.1379,4.1405,4.1414,4.1303,4.1303,4.1303,0,4.0625,4.0707,4.0736,4.0793,4.0828,4.0843,4.09,4.0935,4.1006,4.1029,4.1019,4.1132,4.1169,4.1251,4.1269,4.1293,4.1309,4.129,4.137,4.1377,4.1383,4.1408,4.1418,4.1304,4.1304,4.1304,4.1304,0,4.072,4.0777,4.0815,4.0886,4.0925,4.0981,4.1018,4.1054,4.1067,4.1095,4.1166,4.1211,4.1271,4.1292,4.1304,4.1376,4.1369,4.1364,4.1345,4.1393,4.1417,4.1427,4.1306,4.1306,4.1305,4.1305,0,0,4.0776,4.0863,4.0876,4.0909,4.0974,4.1018,4.1074,4.1135,4.1166,4.1214,4.1262,4.1338,4.1334,4.1369,4.1386,4.1422,4.1477,4.1412,4.1414,4.1423,4.1558,4.1562,4.1573,4.148,4.1482,4.1484,4.1554,0,4.0841,4.0945,4.0973,4.1061,4.1114,4.1129,4.1178,4.1223,4.1251,4.1298,4.1328,4.1382,4.1372,4.1394,4.143,4.1462,4.1504,4.1458,4.1524,4.1526,4.1511,4.1585,4.1589,4.1653,4.1564,4.1565,4.1566,0,4.0931,4.0983,4.1077,4.1136,4.1159,4.1203,4.1262,4.1307,4.1358,4.1376,4.1415,4.1429,4.1488,4.1466,4.1548,4.1515,4.1544,4.1565,4.1568,4.1575,4.1549,4.1594,4.1675,4.1684,4.1581,4.158,4.1579,0,4.0963,4.1057,4.1125,4.1152,4.1222,4.1253,4.1284,4.1333,4.1368,4.1418,4.1441,4.1497,4.1528,4.157,4.1599,4.158,4.1678,4.1658,4.1694,4.1693,4.1713,4.1712,4.1799,4.1732,4.1732,4.1732,4.1731,0,4.1033,4.109,4.1141,4.1182,4.1246,4.1277,4.1339,4.137,4.1414,4.1461,4.1476,4.152,4.1555,4.1603,4.1626,4.169,4.1704,4.1719,4.1724,4.1718,4.1716,4.1737,4.1733,4.1734,4.1734,4.1733,4.1733,0,4.108,4.1116,4.1192,4.1253,4.127,4.1314,4.1366,4.1406,4.1435,4.1494,4.151,4.1554,4.1612,4.1645,4.1717,4.1732,4.1804,4.1807,4.1787,4.1789,4.1823,4.182,4.1928,4.1943,4.1865,4.1866,4.1866,0,4.1122,4.1167,4.1233,4.1267,4.1298,4.1352,4.1388,4.142,4.1457,4.1519,4.1552,4.1611,4.166,4.1751,4.1789,4.1845,4.1849,4.1883,4.1857,4.185,4.185,4.1847,4.1852,4.1887,4.1888,4.1889,4.1889,0,4.1194,4.121,4.1263,4.1322,4.1365,4.1412,4.146,4.1486,4.1525,4.1566,4.1626,4.1664,4.1739,4.1797,4.1856,4.1886,4.1894,4.1897,4.1908,4.1902,4.1889,4.1897,4.1799,4.1894,4.1894,4.1893,4.1893,4.1893,4.124,4.128,4.1334,4.1392,4.1431,4.1475,4.1517,4.1551,4.1602,4.1666,4.1682,4.1745,4.1794,4.1874,4.1906,4.1955,4.1949,4.1965,4.1969,4.1973,4.1974,4.1881,4.1966,4.1966,4.1966,4.1966,4.1966,0,4.1313,4.1348,4.1401,4.1468,4.1513,4.1519,4.1571,4.1608,4.1664,4.1711,4.1759,4.1828,4.1885,4.1928,4.1985,4.2017,4.2022,4.2031,4.2029,4.2036,4.1976,4.1961,4.2026,4.2026,4.2026,4.2026,4.2025,4.2025,4.1356,4.1425,4.1447,4.1535,4.1569,4.1633,4.1662,4.1703,4.174,4.1817,4.1865,4.1893,4.1938,4.1999,4.2051,4.2062,4.2082,4.2091,4.2102,4.2046,4.204,4.2033,4.2019,4.2095,4.2095,4.2158,4.2158,4.2159]}]]